User: anonymous   Login
Location: Harbor Island
(32.3990°N, 80.4435°W)
Time: 15:53:53
(UTC-04:00)
Language:

Cosmos 1455 - Orbit

View from above orbital plane
View from above orbital plane
View from above satellite
View from above satellite

Ground track
Ground track

The orbit data is extracted from the following two-line orbital elements,

1 14032U 83037A   15242.52141269  .00001540  00000-0  80683-4 0  9994
2 14032 082.5197 014.7958 0019414 041.5027 076.6058 15.14897474761888
Epoch (UTC): 30 August 2015 12:30:50
Eccentricity: 0.0019414
inclination: 82.5197°
perigee height: 508 km
apogee height: 534 km
right ascension of ascending node: 14.7958°
argument of perigee: 41.5027°
revolutions per day: 15.14897474
mean anomaly at epoch: 76.6058°
orbit number at epoch: 76188

The dashed part of the orbit path shows where the satellite is in the earth's shadow,  

DLR